TB3NHM-11 Weather Reports


time (UTC)temp
C
wind
direction
speed
KPH
gust
KPH
rain 1hr
cm
rain 24hr
cm
rain mn
cm
humidity
%
barometer
mb
20260506192517 17 0 0.0 0.0 0.00 0.00 0.00 38 1005.8
20260506182604 18 0 0.0 0.0 0.00 0.00 0.00 39 1005.4
20260506172648 19 0 0.0 0.0 0.00 0.00 0.00 36 1004.7
20260506162742 21 0 0.0 0.0 0.00 0.00 0.00 34 1004.1
20260506152836 23 0 0.0 0.0 0.00 0.00 0.00 27 1004.0
20260506142918 25 0 0.0 0.0 0.00 0.00 0.00 24 1003.9
20260506133000 25 0 0.0 0.0 0.00 0.00 0.00 23 1003.8
20260506123042 25 0 0.0 0.0 0.00 0.00 0.00 25 1004.0
20260506113114 24 0 0.0 0.0 0.00 0.00 0.00 26 1004.7
20260506093225 20 0 0.0 0.0 0.00 0.00 0.00 34 1005.7
20260506083301 18 0 0.0 0.0 0.00 0.00 0.00 39 1006.1
20260506073319 15 0 0.0 0.0 0.00 0.00 0.00 49 1006.5
20260506043508 8 0 0.0 0.0 0.00 0.00 0.00 64 1006.9
20260506033546 9 0 0.0 0.0 0.00 0.00 0.00 66 1006.2
20260506023630 9 0 0.0 0.0 0.00 0.00 0.00 64 1005.9
20260506013717 10 0 0.0 0.0 0.00 0.00 0.00 61 1006.0
20260506003804 10 0 0.0 0.0 0.00 0.00 0.00 61 1006.0
20260505233849 11 0 0.0 0.0 0.00 0.00 0.00 55 1005.9
20260505223934 12 0 0.0 0.0 0.00 0.00 0.00 53 1005.8
20260505214017 12 0 0.0 0.0 0.00 0.00 0.00 50 1005.7
20260505204105 14 0 0.0 0.0 0.00 0.00 0.00 38 1005.4